COSMOS 2251 DEB, 34065

Orbit data source: Space-Track

COSMOS 2251 DEB, 34065 is space debris in LEO originally from a launch on Wed, 16 Jun 1993 UTC launched from the Plesetsk Missile And Space Complex (PKMTR). The debris from Iridium 33, an American commercial communications satellite, has been tracked extensively since its accidental collision with the defunct Russian satellite Cosmos 2251 in 2009. This event, occurring at high speed in low Earth orbit (LEO), generated thousands of pieces of space debris, significantly increasing the risk of further collisions. The Iridium 33 debris cloud has impacted space traffic management and orbital debris mitigation strategies, making it a subject of ongoing study in space situational awareness.

Loading next visibility...
Identifier
34065, 1993-036KC
Orbit
LEO
Country
Flag of CISCIS
Related business
Manufacturer
Unknown
Mission
Spacecraft
Bus & Motor
Unknown
Mass
Unknown
Launch date (UTC)
1993-06-16 (33 years ago)
Launch vehicle
Unknown
Launch site
Plesetsk Missile And Space Complex (PKMTR)
Object type
Payload
Rocket body
Debris
Shape & HBR
Unknown shape, 0.1 m
Radar Cross Section
Medium (>0.1 m² and <1 m²)

Expand to show TLE details & history
Last TLE update: 22 hours ago

TLE from 22 hours ago
0 COSMOS 2251 DEB
1 34065U 93036KC  26262.98936303  .00000200  00000-0  74273-4 0  9997
2 34065  74.0333  99.9564 0015913 135.6226  25.5950 14.38291616922488
Epoch: 2026-09-19T23:44Z
TLE epoch observation values (Epoch: 2026-09-19T23:44:40.965Z)
Latitude
17.95512°
Longitude
-80.39572°
Altitude
755.949 km
Speed
7.484 km/s
True Right ascension
18h 18m 39s
True Declination
17° 51' 16"
Sunlit
Object was in daylight at epoch
Visualization orbit readout
Latitude
Unknown
Longitude
Unknown
Altitude
Unknown
Speed
Unknown
Apparent Right ascension
Unknown
Apparent Declination
Unknown
Sunlit
N/A
Visualization observer readout
Local Sidereal Time
15:00:59
Azimuth
Unknown
Elevation
Unknown
Doppler factor
Unknown
Orbital elements
Apogee altitude
773.132 km
Perigee altitude
750.409 km
Semi-major axis
7,139.907 km
Eccentricity
0.00159
Inclination
74.0333°
RAAN
99.9564°
Arg. of periapsis
135.6226°
True anomaly
25.67392°
Mean anomaly
25.595°
Eccentric anomaly
25.63444°
Mean motion
3.59753 °/min
Orbital period
100.07 mins
BSTAR
0.000074273

Documentation

Showing up to 5 results
|